Time,TemperatureF,DewpointF,PressureIn,WindDirection,WindDirectionDegrees,WindSpeedMPH,WindSpeedGustMPH,Humidity,HourlyPrecipIn,Conditions,Clouds,dailyrainin,SoftwareType,DateUTC
2013-04-01 00:00:00,38.4,29.1,29.74,WNW,298,5.0,11.0,69,0.00,,---,0.00,VWS V14.01,2013-04-01 04:00:00,
2013-04-01 00:03:00,38.4,29.1,29.74,NW,315,7.0,11.0,69,0.00,,---,0.00,VWS V14.01,2013-04-01 04:03:00,
2013-04-01 00:08:00,38.3,29.4,29.74,WNW,290,7.0,11.0,70,0.00,,---,0.00,VWS V14.01,2013-04-01 04:08:00,
2013-04-01 00:13:00,38.2,29.3,29.74,WNW,303,8.0,11.0,70,0.00,,---,0.00,VWS V14.01,2013-04-01 04:13:00,
2013-04-01 00:18:00,38.0,29.5,29.75,WNW,285,5.0,11.0,71,0.00,,---,0.00,VWS V14.01,2013-04-01 04:18:00,
2013-04-01 00:23:00,37.9,29.7,29.75,WNW,288,6.0,11.0,72,0.00,,---,0.00,VWS V14.01,2013-04-01 04:23:00,
2013-04-01 00:28:00,38.0,30.1,29.75,NW,304,4.0,11.0,73,0.00,,---,0.00,VWS V14.01,2013-04-01 04:28:00,
2013-04-01 00:30:00,38.2,30.0,29.75,WNW,294,5.0,11.0,72,0.00,,---,0.00,VWS V14.01,2013-04-01 04:30:00,
2013-04-01 00:38:00,38.2,30.0,29.75,WNW,290,6.0,11.0,72,0.00,,---,0.00,VWS V14.01,2013-04-01 04:38:00,
2013-04-01 00:43:00,38.0,29.8,29.75,NW,313,7.0,11.0,72,0.00,,---,0.00,VWS V14.01,2013-04-01 04:43:00,
2013-04-01 00:48:00,37.9,29.7,29.75,WNW,289,5.0,12.0,72,0.00,,---,0.00,VWS V14.01,2013-04-01 04:48:00,
2013-04-01 00:53:00,37.9,30.0,29.75,WNW,283,11.0,12.0,73,0.00,,---,0.00,VWS V14.01,2013-04-01 04:53:00,
2013-04-01 00:58:00,37.9,30.0,29.75,NW,308,6.0,13.0,73,0.00,,---,0.00,VWS V14.01,2013-04-01 04:58:00,
2013-04-01 01:03:00,37.8,29.9,29.75,WNW,286,9.0,9.0,73,0.00,,---,0.00,VWS V14.01,2013-04-01 05:03:00,
2013-04-01 01:08:00,37.5,29.6,29.75,WNW,284,9.0,10.0,73,0.00,,---,0.00,VWS V14.01,2013-04-01 05:08:00,
2013-04-01 01:13:00,37.4,29.5,29.75,NW,311,8.0,11.0,73,0.00,,---,0.00,VWS V14.01,2013-04-01 05:13:00,
2013-04-01 01:18:00,37.4,29.5,29.75,WNW,290,8.0,11.0,73,0.00,,---,0.00,VWS V14.01,2013-04-01 05:18:00,
2013-04-01 01:23:00,37.5,30.0,29.75,NW,312,10.0,11.0,74,0.00,,---,0.00,VWS V14.01,2013-04-01 05:23:00,
2013-04-01 01:28:00,37.7,30.2,29.75,NW,308,16.0,17.0,74,0.00,,---,0.00,VWS V14.01,2013-04-01 05:28:00,
2013-04-01 01:38:00,37.8,30.3,29.76,NW,320,15.0,16.0,74,0.00,,---,0.00,VWS V14.01,2013-04-01 05:38:00,
2013-04-01 01:43:00,37.7,30.2,29.76,West,276,12.0,18.0,74,0.00,,---,0.00,VWS V14.01,2013-04-01 05:43:00,
2013-04-01 01:48:00,37.7,30.2,29.76,WNW,300,13.0,18.0,74,0.00,,---,0.00,VWS V14.01,2013-04-01 05:48:00,
2013-04-01 01:53:00,37.6,30.1,29.76,WNW,292,7.0,18.0,74,0.00,,---,0.00,VWS V14.01,2013-04-01 05:53:00,
2013-04-01 01:58:00,37.5,29.6,29.76,WNW,291,8.0,18.0,73,0.00,,---,0.00,VWS V14.01,2013-04-01 05:58:00,
2013-04-01 02:03:00,37.3,29.5,29.77,WNW,300,9.0,11.0,73,0.00,,---,0.00,VWS V14.01,2013-04-01 06:03:00,
2013-04-01 02:08:00,37.1,29.3,29.77,NW,321,11.0,12.0,73,0.00,,---,0.00,VWS V14.01,2013-04-01 06:08:00,
2013-04-01 02:13:00,36.9,29.1,29.78,WNW,292,12.0,15.0,73,0.00,,---,0.00,VWS V14.01,2013-04-01 06:13:00,
2013-04-01 02:18:00,36.7,28.9,29.77,NW,309,7.0,15.0,73,0.00,,---,0.00,VWS V14.01,2013-04-01 06:18:00,
2013-04-01 02:23:00,36.5,28.4,29.78,NW,315,6.0,15.0,72,0.00,,---,0.00,VWS V14.01,2013-04-01 06:23:00,
2013-04-01 02:28:00,36.3,28.5,29.78,NW,325,8.0,15.0,73,0.00,,---,0.00,VWS V14.01,2013-04-01 06:28:00,
2013-04-01 02:33:00,36.1,28.3,29.78,NW,325,7.0,12.0,73,0.00,,---,0.00,VWS V14.01,2013-04-01 06:33:00,
2013-04-01 02:38:00,35.9,28.1,29.78,WNW,300,12.0,12.0,73,0.00,,---,0.00,VWS V14.01,2013-04-01 06:38:00,
2013-04-01 02:43:00,35.8,28.0,29.78,NW,306,5.0,12.0,73,0.00,,---,0.00,VWS V14.01,2013-04-01 06:43:00,
2013-04-01 02:48:00,35.6,28.1,29.78,WNW,300,7.0,12.0,74,0.00,,---,0.00,VWS V14.01,2013-04-01 06:48:00,
2013-04-01 02:53:00,35.5,28.7,29.78,WNW,292,6.0,12.0,76,0.00,,---,0.00,VWS V14.01,2013-04-01 06:53:00,
2013-04-01 02:58:00,35.5,28.7,29.79,WNW,292,5.0,12.0,76,0.00,,---,0.00,VWS V14.01,2013-04-01 06:58:00,
2013-04-01 03:03:00,35.4,28.9,29.79,NW,319,8.0,13.0,77,0.00,,---,0.00,VWS V14.01,2013-04-01 07:03:00,
2013-04-01 03:14:00,35.3,29.1,29.79,NW,310,7.0,13.0,78,0.00,,---,0.00,VWS V14.01,2013-04-01 07:14:00,
2013-04-01 03:19:00,35.3,29.1,29.79,NW,306,7.0,13.0,78,0.00,,---,0.00,VWS V14.01,2013-04-01 07:19:00,
2013-04-01 03:24:00,35.4,29.2,29.79,NNW,339,6.0,13.0,78,0.00,,---,0.00,VWS V14.01,2013-04-01 07:24:00,
2013-04-01 03:29:00,35.5,29.3,29.79,WNW,292,8.0,13.0,78,0.00,,---,0.00,VWS V14.01,2013-04-01 07:29:00,
2013-04-01 03:34:00,35.4,29.2,29.79,NW,323,4.0,9.0,78,0.00,,---,0.00,VWS V14.01,2013-04-01 07:34:00,
2013-04-01 03:39:00,35.3,29.1,29.80,WNW,303,7.0,11.0,78,0.00,,---,0.00,VWS V14.01,2013-04-01 07:39:00,
2013-04-01 03:44:00,35.4,28.9,29.80,WNW,301,7.0,11.0,77,0.00,,---,0.00,VWS V14.01,2013-04-01 07:44:00,
2013-04-01 03:49:00,35.6,28.8,29.80,NW,311,9.0,15.0,76,0.00,,---,0.00,VWS V14.01,2013-04-01 07:49:00,
2013-04-01 03:54:00,35.6,28.8,29.80,NW,316,8.0,15.0,76,0.00,,---,0.00,VWS V14.01,2013-04-01 07:54:00,
2013-04-01 03:59:00,35.5,28.7,29.80,NNW,338,8.0,15.0,76,0.00,,---,0.00,VWS V14.01,2013-04-01 07:59:00,
2013-04-01 04:04:00,35.5,29.0,29.81,NNW,330,13.0,16.0,77,0.00,,---,0.00,VWS V14.01,2013-04-01 08:04:00,
2013-04-01 04:09:00,35.0,28.2,29.81,NW,317,12.0,16.0,76,0.00,,---,0.00,VWS V14.01,2013-04-01 08:09:00,
2013-04-01 04:14:00,34.6,27.8,29.82,NNW,346,9.0,16.0,76,0.00,,---,0.00,VWS V14.01,2013-04-01 08:14:00,
2013-04-01 04:19:00,34.3,26.6,29.82,NW,321,8.0,16.0,73,0.00,,---,0.00,VWS V14.01,2013-04-01 08:19:00,
2013-04-01 04:24:00,34.0,25.9,29.82,NNW,328,12.0,18.0,72,0.00,,---,0.00,VWS V14.01,2013-04-01 08:24:00,
2013-04-01 04:29:00,33.7,26.0,29.83,NNW,344,10.0,18.0,73,0.00,,---,0.00,VWS V14.01,2013-04-01 08:29:00,
2013-04-01 04:34:00,33.2,25.8,29.83,NW,326,12.0,12.0,74,0.00,,---,0.00,VWS V14.01,2013-04-01 08:34:00,
2013-04-01 04:39:00,32.8,25.4,29.83,NNW,335,6.0,12.0,74,0.00,,---,0.00,VWS V14.01,2013-04-01 08:39:00,
2013-04-01 04:44:00,32.5,25.1,29.83,NNW,335,7.0,12.0,74,0.00,,---,0.00,VWS V14.01,2013-04-01 08:44:00,
2013-04-01 04:49:00,32.2,24.9,29.84,NNW,345,6.0,12.0,74,0.00,,---,0.00,VWS V14.01,2013-04-01 08:49:00,
2013-04-01 04:54:00,31.9,24.9,29.84,NNW,339,9.0,12.0,75,0.00,,---,0.00,VWS V14.01,2013-04-01 08:54:00,
2013-04-01 04:59:00,31.7,24.4,29.84,NNW,344,10.0,13.0,74,0.00,,---,0.00,VWS V14.01,2013-04-01 08:59:00,
2013-04-01 05:04:00,31.7,24.4,29.84,NNW,333,5.0,10.0,74,0.00,,---,0.00,VWS V14.01,2013-04-01 09:04:00,
2013-04-01 05:09:00,31.5,24.2,29.84,NNW,330,4.0,10.0,74,0.00,,---,0.00,VWS V14.01,2013-04-01 09:09:00,
2013-04-01 05:14:00,31.3,24.0,29.85,NNW,335,8.0,10.0,74,0.00,,---,0.00,VWS V14.01,2013-04-01 09:14:00,
2013-04-01 05:19:00,31.2,23.2,29.85,NNW,333,8.0,11.0,72,0.00,,---,0.00,VWS V14.01,2013-04-01 09:19:00,
2013-04-01 05:24:00,31.0,22.4,29.85,North,5,6.0,11.0,70,0.00,,---,0.00,VWS V14.01,2013-04-01 09:24:00,
2013-04-01 05:29:00,30.9,21.9,29.85,NNW,348,7.0,11.0,69,0.00,,---,0.00,VWS V14.01,2013-04-01 09:29:00,
2013-04-01 05:34:00,30.6,21.6,29.86,NNW,337,8.0,11.0,69,0.00,,---,0.00,VWS V14.01,2013-04-01 09:34:00,
2013-04-01 05:39:00,30.6,21.6,29.86,NNW,342,4.0,11.0,69,0.00,,---,0.00,VWS V14.01,2013-04-01 09:39:00,
2013-04-01 05:44:00,30.5,21.6,29.86,NNW,333,4.0,11.0,69,0.00,,---,0.00,VWS V14.01,2013-04-01 09:44:00,
2013-04-01 05:49:00,30.1,21.9,29.86,NNW,346,5.0,11.0,71,0.00,,---,0.00,VWS V14.01,2013-04-01 09:49:00,
2013-04-01 05:54:00,30.0,22.1,29.87,NNW,335,3.0,11.0,72,0.00,,---,0.00,VWS V14.01,2013-04-01 09:54:00,
2013-04-01 05:59:00,29.5,21.9,29.87,NW,312,5.0,11.0,73,0.00,,---,0.00,VWS V14.01,2013-04-01 09:59:00,
2013-04-01 06:04:00,29.5,21.9,29.88,NNW,332,4.0,7.0,73,0.00,,---,0.00,VWS V14.01,2013-04-01 10:04:00,
2013-04-01 06:09:00,29.5,21.9,29.88,WNW,300,7.0,7.0,73,0.00,,---,0.00,VWS V14.01,2013-04-01 10:09:00,
2013-04-01 06:14:00,29.6,21.4,29.88,NNW,346,6.0,10.0,71,0.00,,---,0.00,VWS V14.01,2013-04-01 10:14:00,
2013-04-01 06:19:00,29.8,21.2,29.88,NNW,334,4.0,10.0,70,0.00,,---,0.00,VWS V14.01,2013-04-01 10:19:00,
2013-04-01 06:24:00,29.8,21.2,29.89,NNW,338,6.0,10.0,70,0.00,,---,0.00,VWS V14.01,2013-04-01 10:24:00,
2013-04-01 06:29:00,29.6,21.0,29.89,NNW,346,5.0,10.0,70,0.00,,---,0.00,VWS V14.01,2013-04-01 10:29:00,
2013-04-01 06:34:00,29.3,21.1,29.89,NNW,331,1.0,7.0,71,0.00,,---,0.00,VWS V14.01,2013-04-01 10:34:00,
2013-04-01 06:39:00,28.9,21.0,29.89,NNW,335,3.0,7.0,72,0.00,,---,0.00,VWS V14.01,2013-04-01 10:39:00,
2013-04-01 06:44:00,28.7,20.8,29.89,NNW,333,1.0,7.0,72,0.00,,---,0.00,VWS V14.01,2013-04-01 10:44:00,
2013-04-01 06:49:00,28.4,20.5,29.90,NNW,336,4.0,7.0,72,0.00,,---,0.00,VWS V14.01,2013-04-01 10:49:00,
2013-04-01 06:54:00,28.4,20.9,29.90,NNW,346,2.0,7.0,73,0.00,,---,0.00,VWS V14.01,2013-04-01 10:54:00,
2013-04-01 06:59:00,28.2,20.7,29.90,NNW,331,3.0,7.0,73,0.00,,---,0.00,VWS V14.01,2013-04-01 10:59:00,
2013-04-01 07:04:00,28.0,20.8,29.90,NNW,346,3.0,4.0,74,0.00,,---,0.00,VWS V14.01,2013-04-01 11:04:00,
2013-04-01 07:09:00,27.9,20.7,29.90,NNW,342,3.0,5.0,74,0.00,,---,0.00,VWS V14.01,2013-04-01 11:09:00,
2013-04-01 07:14:00,27.9,20.7,29.90,NNW,336,3.0,5.0,74,0.00,,---,0.00,VWS V14.01,2013-04-01 11:14:00,
2013-04-01 07:25:00,28.0,20.8,29.91,NNW,327,2.0,5.0,74,0.00,,---,0.00,VWS V14.01,2013-04-01 11:25:00,
2013-04-01 07:30:00,28.0,20.8,29.91,NW,323,1.0,5.0,74,0.00,,---,0.00,VWS V14.01,2013-04-01 11:30:00,
2013-04-01 07:35:00,27.9,20.7,29.92,NW,320,1.0,3.0,74,0.00,,---,0.00,VWS V14.01,2013-04-01 11:35:00,
2013-04-01 07:40:00,27.9,20.7,29.92,NW,320,1.0,3.0,74,0.00,,---,0.00,VWS V14.01,2013-04-01 11:40:00,
2013-04-01 07:45:00,27.6,20.4,29.92,NW,320,0.0,3.0,74,0.00,,---,0.00,VWS V14.01,2013-04-01 11:45:00,
2013-04-01 07:50:00,27.5,20.3,29.93,NW,320,2.0,3.0,74,0.00,,---,0.00,VWS V14.01,2013-04-01 11:50:00,
2013-04-01 07:55:00,27.8,20.6,29.93,NW,320,0.0,3.0,74,0.00,,---,0.00,VWS V14.01,2013-04-01 11:55:00,
2013-04-01 08:00:00,28.0,20.8,29.94,NW,320,1.0,3.0,74,0.00,,---,0.00,VWS V14.01,2013-04-01 12:00:00,
2013-04-01 08:05:00,28.1,21.2,29.94,NW,320,1.0,2.0,75,0.00,,---,0.00,VWS V14.01,2013-04-01 12:05:00,
2013-04-01 08:10:00,28.5,21.6,29.94,NW,320,1.0,2.0,75,0.00,,---,0.00,VWS V14.01,2013-04-01 12:10:00,
2013-04-01 08:15:00,29.2,22.3,29.94,NW,320,3.0,3.0,75,0.00,,---,0.00,VWS V14.01,2013-04-01 12:15:00,
2013-04-01 08:20:00,29.9,22.3,29.95,NW,311,2.0,4.0,73,0.00,,---,0.00,VWS V14.01,2013-04-01 12:20:00,
2013-04-01 08:25:00,30.5,22.2,29.95,NW,315,3.0,5.0,71,0.00,,---,0.00,VWS V14.01,2013-04-01 12:25:00,
2013-04-01 08:30:00,30.7,22.4,29.95,NW,315,3.0,5.0,71,0.00,,---,0.00,VWS V14.01,2013-04-01 12:30:00,
2013-04-01 08:35:00,30.8,22.5,29.95,NW,317,5.0,6.0,71,0.00,,---,0.00,VWS V14.01,2013-04-01 12:35:00,
2013-04-01 08:40:00,30.9,22.3,29.95,NW,317,3.0,6.0,70,0.00,,---,0.00,VWS V14.01,2013-04-01 12:40:00,
2013-04-01 08:45:00,31.1,22.5,29.96,NW,309,6.0,6.0,70,0.00,,---,0.00,VWS V14.01,2013-04-01 12:45:00,
2013-04-01 08:50:00,31.4,22.8,29.96,WNW,292,5.0,8.0,70,0.00,,---,0.00,VWS V14.01,2013-04-01 12:50:00,
2013-04-01 08:55:00,31.6,22.3,29.96,WNW,300,5.0,8.0,68,0.00,,---,0.00,VWS V14.01,2013-04-01 12:55:00,
2013-04-01 09:00:00,31.7,22.7,29.96,NW,307,3.0,8.0,69,0.00,,---,0.00,VWS V14.01,2013-04-01 13:00:00,
2013-04-01 09:05:00,31.7,22.7,29.96,NW,312,6.0,7.0,69,0.00,,---,0.00,VWS V14.01,2013-04-01 13:05:00,
2013-04-01 09:10:00,31.9,22.9,29.97,West,273,7.0,8.0,69,0.00,,---,0.00,VWS V14.01,2013-04-01 13:10:00,
2013-04-01 09:15:00,32.2,22.8,29.97,WNW,302,5.0,12.0,68,0.00,,---,0.00,VWS V14.01,2013-04-01 13:15:00,
2013-04-01 09:20:00,32.9,23.2,29.97,NNW,340,7.0,13.0,67,0.00,,---,0.00,VWS V14.01,2013-04-01 13:20:00,
2013-04-01 09:25:00,33.0,22.2,29.97,NNW,336,10.0,14.0,64,0.00,,---,0.00,VWS V14.01,2013-04-01 13:25:00,
2013-04-01 09:30:00,33.0,21.8,29.97,NW,317,10.0,16.0,63,0.00,,---,0.00,VWS V14.01,2013-04-01 13:30:00,
2013-04-01 09:35:00,32.6,21.4,29.97,NNW,343,12.0,18.0,63,0.00,,---,0.00,VWS V14.01,2013-04-01 13:35:00,
2013-04-01 09:40:00,32.4,21.6,29.97,NNW,345,9.0,18.0,64,0.00,,---,0.00,VWS V14.01,2013-04-01 13:40:00,
2013-04-01 09:45:00,33.0,21.8,29.97,NNW,327,10.0,18.0,63,0.00,,---,0.00,VWS V14.01,2013-04-01 13:45:00,
2013-04-01 09:50:00,33.0,22.2,29.97,NNW,340,7.0,18.0,64,0.00,,---,0.00,VWS V14.01,2013-04-01 13:50:00,
2013-04-01 09:55:00,33.9,22.3,29.97,NNW,343,7.0,18.0,62,0.00,,---,0.00,VWS V14.01,2013-04-01 13:55:00,
2013-04-01 10:00:00,34.5,21.7,29.98,NNW,336,13.0,13.0,59,0.00,,---,0.00,VWS V14.01,2013-04-01 14:00:00,
2013-04-01 10:05:00,34.0,22.0,29.98,West,279,8.0,15.0,61,0.00,,---,0.00,VWS V14.01,2013-04-01 14:05:00,
2013-04-01 10:10:00,34.1,20.9,29.98,NW,315,8.0,15.0,58,0.00,,---,0.00,VWS V14.01,2013-04-01 14:10:00,
2013-04-01 10:15:00,34.1,20.1,29.99,NNW,329,9.0,15.0,56,0.00,,---,0.00,VWS V14.01,2013-04-01 14:15:00,
2013-04-01 10:20:00,33.9,20.3,29.99,NNW,331,11.0,16.0,57,0.00,,---,0.00,VWS V14.01,2013-04-01 14:20:00,
2013-04-01 10:25:00,33.7,20.5,29.99,NNW,342,10.0,16.0,58,0.00,,---,0.00,VWS V14.01,2013-04-01 14:25:00,
2013-04-01 10:30:00,34.2,21.0,29.99,NW,322,10.0,12.0,58,0.00,,---,0.00,VWS V14.01,2013-04-01 14:30:00,
2013-04-01 10:35:00,34.0,20.0,29.99,NW,309,13.0,13.0,56,0.00,,---,0.00,VWS V14.01,2013-04-01 14:35:00,
2013-04-01 10:40:00,34.1,20.5,30.00,NW,313,7.0,14.0,57,0.00,,---,0.00,VWS V14.01,2013-04-01 14:40:00,
2013-04-01 10:45:00,34.6,20.5,30.00,NW,315,6.0,14.0,56,0.00,,---,0.00,VWS V14.01,2013-04-01 14:45:00,
2013-04-01 10:50:00,34.7,21.0,30.00,WNW,291,7.0,14.0,57,0.00,,---,0.00,VWS V14.01,2013-04-01 14:50:00,
2013-04-01 10:55:00,34.9,20.8,30.00,WNW,295,7.0,14.0,56,0.00,,---,0.00,VWS V14.01,2013-04-01 14:55:00,
2013-04-01 11:00:00,34.7,19.8,30.00,NNW,336,10.0,13.0,54,0.00,,---,0.00,VWS V14.01,2013-04-01 15:00:00,
2013-04-01 11:05:00,34.4,19.9,30.00,NW,324,10.0,13.0,55,0.00,,---,0.00,VWS V14.01,2013-04-01 15:05:00,
2013-04-01 11:10:00,35.0,20.5,30.00,NNW,327,12.0,13.0,55,0.00,,---,0.00,VWS V14.01,2013-04-01 15:10:00,
2013-04-01 11:15:00,34.9,20.4,30.00,WNW,302,10.0,13.0,55,0.00,,---,0.00,VWS V14.01,2013-04-01 15:15:00,
2013-04-01 11:20:00,35.0,19.6,30.00,WNW,298,18.0,18.0,53,0.00,,---,0.00,VWS V14.01,2013-04-01 15:20:00,
2013-04-01 11:25:00,34.5,19.6,30.00,West,279,8.0,18.0,54,0.00,,---,0.00,VWS V14.01,2013-04-01 15:25:00,
2013-04-01 11:30:00,36.8,20.8,30.00,West,261,13.0,13.0,52,0.00,,---,0.00,VWS V14.01,2013-04-01 15:30:00,
2013-04-01 11:35:00,36.1,18.8,30.00,NW,313,9.0,14.0,49,0.00,,---,0.00,VWS V14.01,2013-04-01 15:35:00,
2013-04-01 11:41:00,36.6,20.2,30.00,WNW,300,8.0,14.0,51,0.00,,---,0.00,VWS V14.01,2013-04-01 15:41:00,
2013-04-01 11:46:00,36.8,19.0,30.00,WNW,300,5.0,15.0,48,0.00,,---,0.00,VWS V14.01,2013-04-01 15:46:00,
2013-04-01 11:56:00,37.2,19.8,30.00,WNW,292,10.0,18.0,49,0.00,,---,0.00,VWS V14.01,2013-04-01 15:56:00,
2013-04-01 12:01:00,38.0,19.6,30.00,WNW,290,14.0,14.0,47,0.00,,---,0.00,VWS V14.01,2013-04-01 16:01:00,
2013-04-01 12:06:00,37.5,19.1,30.01,NW,316,11.0,18.0,47,0.00,,---,0.00,VWS V14.01,2013-04-01 16:06:00,
2013-04-01 12:11:00,37.9,19.5,30.01,WNW,301,8.0,18.0,47,0.00,,---,0.00,VWS V14.01,2013-04-01 16:11:00,
2013-04-01 12:16:00,37.4,19.0,30.01,NW,309,9.0,18.0,47,0.00,,---,0.00,VWS V14.01,2013-04-01 16:16:00,
2013-04-01 12:21:00,37.5,18.6,30.01,WNW,295,13.0,18.0,46,0.00,,---,0.00,VWS V14.01,2013-04-01 16:21:00,
2013-04-01 12:26:00,37.4,19.0,30.01,NW,323,10.0,18.0,47,0.00,,---,0.00,VWS V14.01,2013-04-01 16:26:00,
2013-04-01 12:31:00,37.5,20.1,30.02,WNW,284,13.0,15.0,49,0.00,,---,0.00,VWS V14.01,2013-04-01 16:31:00,
2013-04-01 12:36:00,38.2,19.3,30.01,WNW,287,10.0,15.0,46,0.00,,---,0.00,VWS V14.01,2013-04-01 16:36:00,
2013-04-01 12:41:00,38.6,19.1,30.02,WNW,299,10.0,17.0,45,0.00,,---,0.00,VWS V14.01,2013-04-01 16:41:00,
2013-04-01 12:51:00,37.7,18.3,30.02,NW,317,10.0,18.0,45,0.00,,---,0.00,VWS V14.01,2013-04-01 16:51:00,
2013-04-01 12:56:00,38.7,20.2,30.02,WNW,285,10.0,18.0,47,0.00,,---,0.00,VWS V14.01,2013-04-01 16:56:00,
2013-04-01 13:02:00,38.9,20.4,30.02,WNW,290,11.0,17.0,47,0.00,,---,0.00,VWS V14.01,2013-04-01 17:02:00,
2013-04-01 13:07:00,39.2,19.7,30.02,NW,318,14.0,17.0,45,0.00,,---,0.00,VWS V14.01,2013-04-01 17:07:00,
2013-04-01 13:12:00,38.2,17.7,30.02,WNW,300,8.0,17.0,43,0.00,,---,0.00,VWS V14.01,2013-04-01 17:12:00,
2013-04-01 13:17:00,38.2,19.3,30.02,NNW,338,13.0,17.0,46,0.00,,---,0.00,VWS V14.01,2013-04-01 17:17:00,
2013-04-01 13:22:00,37.7,18.8,30.02,NW,325,16.0,17.0,46,0.00,,---,0.00,VWS V14.01,2013-04-01 17:22:00,
2013-04-01 13:27:00,36.5,17.7,30.02,NNW,336,8.0,19.0,46,0.00,,---,0.00,VWS V14.01,2013-04-01 17:27:00,
2013-04-01 13:32:00,38.2,19.3,30.02,NW,305,8.0,15.0,46,0.00,,---,0.00,VWS V14.01,2013-04-01 17:32:00,
2013-04-01 13:37:00,36.7,17.9,30.02,WNW,296,14.0,16.0,46,0.00,,---,0.00,VWS V14.01,2013-04-01 17:37:00,
2013-04-01 13:42:00,36.9,19.1,30.02,West,274,13.0,16.0,48,0.00,,---,0.00,VWS V14.01,2013-04-01 17:42:00,
2013-04-01 13:47:00,38.9,18.9,30.02,NW,309,9.0,20.0,44,0.00,,---,0.00,VWS V14.01,2013-04-01 17:47:00,
2013-04-01 13:52:00,39.7,19.6,30.02,NW,312,12.0,20.0,44,0.00,,---,0.00,VWS V14.01,2013-04-01 17:52:00,
2013-04-01 13:57:00,39.9,19.2,30.03,NW,305,13.0,20.0,43,0.00,,---,0.00,VWS V14.01,2013-04-01 17:57:00,
2013-04-01 14:02:00,39.3,19.2,30.03,West,280,10.0,16.0,44,0.00,,---,0.00,VWS V14.01,2013-04-01 18:02:00,
2013-04-01 14:07:00,40.0,19.3,30.02,West,270,15.0,17.0,43,0.00,,---,0.00,VWS V14.01,2013-04-01 18:07:00,
2013-04-01 14:12:00,40.1,20.0,30.02,WNW,293,12.0,19.0,44,0.00,,---,0.00,VWS V14.01,2013-04-01 18:12:00,
2013-04-01 14:17:00,40.1,18.9,30.03,West,273,17.0,19.0,42,0.00,,---,0.00,VWS V14.01,2013-04-01 18:17:00,
2013-04-01 14:22:00,39.5,19.4,30.03,West,276,9.0,19.0,44,0.00,,---,0.00,VWS V14.01,2013-04-01 18:22:00,
2013-04-01 14:27:00,39.1,17.4,30.03,WNW,292,12.0,19.0,41,0.00,,---,0.00,VWS V14.01,2013-04-01 18:27:00,
2013-04-01 14:32:00,38.9,18.9,30.03,WNW,303,11.0,16.0,44,0.00,,---,0.00,VWS V14.01,2013-04-01 18:32:00,
2013-04-01 14:37:00,39.2,20.2,30.03,WNW,295,12.0,19.0,46,0.00,,---,0.00,VWS V14.01,2013-04-01 18:37:00,
2013-04-01 14:42:00,39.0,19.0,30.03,WNW,299,12.0,19.0,44,0.00,,---,0.00,VWS V14.01,2013-04-01 18:42:00,
2013-04-01 14:47:00,38.9,18.3,30.03,WNW,288,6.0,19.0,43,0.00,,---,0.00,VWS V14.01,2013-04-01 18:47:00,
2013-04-01 14:52:00,39.4,18.2,30.03,West,272,13.0,19.0,42,0.00,,---,0.00,VWS V14.01,2013-04-01 18:52:00,
2013-04-01 14:57:00,39.8,19.1,30.03,WNW,303,9.0,19.0,43,0.00,,---,0.00,VWS V14.01,2013-04-01 18:57:00,
2013-04-01 15:07:00,40.3,19.6,30.03,WNW,291,8.0,16.0,43,0.00,,---,0.00,VWS V14.01,2013-04-01 19:07:00,
2013-04-01 15:12:00,40.2,19.5,30.03,NW,313,15.0,18.0,43,0.00,,---,0.00,VWS V14.01,2013-04-01 19:12:00,
2013-04-01 15:17:00,38.4,17.9,30.04,NW,309,13.0,19.0,43,0.00,,---,0.00,VWS V14.01,2013-04-01 19:17:00,
2013-04-01 15:22:00,38.7,18.1,30.03,WNW,300,11.0,19.0,43,0.00,,---,0.00,VWS V14.01,2013-04-01 19:22:00,
2013-04-01 15:27:00,39.4,19.3,30.03,West,271,11.0,19.0,44,0.00,,---,0.00,VWS V14.01,2013-04-01 19:27:00,
2013-04-01 15:32:00,39.4,19.3,30.03,WNW,285,13.0,15.0,44,0.00,,---,0.00,VWS V14.01,2013-04-01 19:32:00,
2013-04-01 15:37:00,39.5,19.4,30.03,NW,326,14.0,20.0,44,0.00,,---,0.00,VWS V14.01,2013-04-01 19:37:00,
2013-04-01 15:42:00,39.1,18.5,30.03,NW,323,9.0,20.0,43,0.00,,---,0.00,VWS V14.01,2013-04-01 19:42:00,
2013-04-01 15:48:00,39.6,17.9,30.03,NNW,344,9.0,20.0,41,0.00,,---,0.00,VWS V14.01,2013-04-01 19:48:00,
2013-04-01 15:53:00,38.8,17.7,30.04,WSW,254,13.0,20.0,42,0.00,,---,0.00,VWS V14.01,2013-04-01 19:53:00,
2013-04-01 15:58:00,38.2,18.2,30.04,NW,314,9.0,20.0,44,0.00,,---,0.00,VWS V14.01,2013-04-01 19:58:00,
2013-04-01 16:03:00,38.5,19.0,30.04,WNW,290,12.0,19.0,45,0.00,,---,0.00,VWS V14.01,2013-04-01 20:03:00,
2013-04-01 16:08:00,39.3,19.2,30.04,NW,323,15.0,19.0,44,0.00,,---,0.00,VWS V14.01,2013-04-01 20:08:00,
2013-04-01 16:13:00,39.2,18.6,30.04,NW,317,8.0,19.0,43,0.00,,---,0.00,VWS V14.01,2013-04-01 20:13:00,
2013-04-01 16:18:00,39.0,18.4,30.04,NW,304,12.0,19.0,43,0.00,,---,0.00,VWS V14.01,2013-04-01 20:18:00,
2013-04-01 16:23:00,38.8,18.2,30.05,West,279,11.0,19.0,43,0.00,,---,0.00,VWS V14.01,2013-04-01 20:23:00,
2013-04-01 16:28:00,37.5,17.0,30.04,WNW,299,8.0,19.0,43,0.00,,---,0.00,VWS V14.01,2013-04-01 20:28:00,
2013-04-01 16:33:00,38.2,17.7,30.04,NW,313,15.0,21.0,43,0.00,,---,0.00,VWS V14.01,2013-04-01 20:33:00,
2013-04-01 16:38:00,38.3,17.8,30.05,NW,319,12.0,21.0,43,0.00,,---,0.00,VWS V14.01,2013-04-01 20:38:00,
2013-04-01 16:43:00,37.3,16.9,30.05,NW,317,17.0,21.0,43,0.00,,---,0.00,VWS V14.01,2013-04-01 20:43:00,
2013-04-01 16:48:00,38.0,17.5,30.05,NW,317,15.0,21.0,43,0.00,,---,0.00,VWS V14.01,2013-04-01 20:48:00,
2013-04-01 16:53:00,37.5,17.0,30.05,NW,307,14.0,21.0,43,0.00,,---,0.00,VWS V14.01,2013-04-01 20:53:00,
2013-04-01 16:58:00,37.6,18.2,30.05,NW,315,10.0,21.0,45,0.00,,---,0.00,VWS V14.01,2013-04-01 20:58:00,
2013-04-01 17:03:00,37.8,17.9,30.05,NW,324,10.0,17.0,44,0.00,,---,0.00,VWS V14.01,2013-04-01 21:03:00,
2013-04-01 17:08:00,38.4,17.9,30.05,West,277,10.0,17.0,43,0.00,,---,0.00,VWS V14.01,2013-04-01 21:08:00,
2013-04-01 17:13:00,38.3,17.8,30.05,WNW,300,16.0,18.0,43,0.00,,---,0.00,VWS V14.01,2013-04-01 21:13:00,
2013-04-01 17:18:00,37.9,17.4,30.05,West,281,8.0,18.0,43,0.00,,---,0.00,VWS V14.01,2013-04-01 21:18:00,
2013-04-01 17:23:00,38.3,18.3,30.05,West,265,11.0,18.0,44,0.00,,---,0.00,VWS V14.01,2013-04-01 21:23:00,
2013-04-01 17:28:00,37.6,18.2,30.04,West,277,10.0,18.0,45,0.00,,---,0.00,VWS V14.01,2013-04-01 21:28:00,
2013-04-01 17:33:00,37.7,17.8,30.04,NW,306,9.0,16.0,44,0.00,,---,0.00,VWS V14.01,2013-04-01 21:33:00,
2013-04-01 17:38:00,37.7,18.3,30.04,West,279,11.0,16.0,45,0.00,,---,0.00,VWS V14.01,2013-04-01 21:38:00,
2013-04-01 17:43:00,37.5,17.6,30.04,WNW,298,12.0,16.0,44,0.00,,---,0.00,VWS V14.01,2013-04-01 21:43:00,
2013-04-01 17:48:00,37.6,18.2,30.04,WNW,300,9.0,16.0,45,0.00,,---,0.00,VWS V14.01,2013-04-01 21:48:00,
2013-04-01 17:53:00,37.7,16.7,30.04,WNW,284,14.0,18.0,42,0.00,,---,0.00,VWS V14.01,2013-04-01 21:53:00,
2013-04-01 17:58:00,37.6,17.1,30.04,WNW,288,9.0,18.0,43,0.00,,---,0.00,VWS V14.01,2013-04-01 21:58:00,
2013-04-01 18:03:00,37.5,18.1,30.04,NW,319,11.0,15.0,45,0.00,,---,0.00,VWS V14.01,2013-04-01 22:03:00,
2013-04-01 18:08:00,37.3,17.4,30.05,West,279,9.0,17.0,44,0.00,,---,0.00,VWS V14.01,2013-04-01 22:08:00,
2013-04-01 18:13:00,37.3,17.4,30.05,West,274,6.0,17.0,44,0.00,,---,0.00,VWS V14.01,2013-04-01 22:13:00,
2013-04-01 18:18:00,37.1,17.7,30.05,NW,323,9.0,17.0,45,0.00,,---,0.00,VWS V14.01,2013-04-01 22:18:00,
2013-04-01 18:23:00,37.1,17.2,30.05,NW,309,11.0,17.0,44,0.00,,---,0.00,VWS V14.01,2013-04-01 22:23:00,
2013-04-01 18:28:00,37.3,17.9,30.05,NW,309,9.0,17.0,45,0.00,,---,0.00,VWS V14.01,2013-04-01 22:28:00,
2013-04-01 18:33:00,36.8,17.5,30.05,West,268,11.0,14.0,45,0.00,,---,0.00,VWS V14.01,2013-04-01 22:33:00,
2013-04-01 18:38:00,36.8,17.5,30.05,WNW,303,6.0,14.0,45,0.00,,---,0.00,VWS V14.01,2013-04-01 22:38:00,
2013-04-01 18:43:00,36.4,16.6,30.05,NW,310,7.0,18.0,44,0.00,,---,0.00,VWS V14.01,2013-04-01 22:43:00,
2013-04-01 18:48:00,35.9,16.6,30.05,WNW,285,8.0,18.0,45,0.00,,---,0.00,VWS V14.01,2013-04-01 22:48:00,
2013-04-01 18:53:00,36.1,16.8,30.05,West,279,12.0,18.0,45,0.00,,---,0.00,VWS V14.01,2013-04-01 22:53:00,
2013-04-01 18:58:00,36.0,16.7,30.05,NW,304,9.0,18.0,45,0.00,,---,0.00,VWS V14.01,2013-04-01 22:58:00,
2013-04-01 19:03:00,35.7,17.5,30.06,NNW,329,10.0,15.0,47,0.00,,---,0.00,VWS V14.01,2013-04-01 23:03:00,
2013-04-01 19:08:00,35.4,16.7,30.06,NNW,327,10.0,15.0,46,0.00,,---,0.00,VWS V14.01,2013-04-01 23:08:00,
2013-04-01 19:13:00,35.2,17.0,30.06,West,279,7.0,15.0,47,0.00,,---,0.00,VWS V14.01,2013-04-01 23:13:00,
2013-04-01 19:18:00,35.2,17.0,30.06,WNW,284,9.0,15.0,47,0.00,,---,0.00,VWS V14.01,2013-04-01 23:18:00,
2013-04-01 19:23:00,35.0,17.3,30.06,WNW,302,8.0,16.0,48,0.00,,---,0.00,VWS V14.01,2013-04-01 23:23:00,
2013-04-01 19:28:00,34.7,17.5,30.06,NW,304,7.0,16.0,49,0.00,,---,0.00,VWS V14.01,2013-04-01 23:28:00,
2013-04-01 19:33:00,34.5,16.9,30.06,NW,323,8.0,12.0,48,0.00,,---,0.00,VWS V14.01,2013-04-01 23:33:00,
2013-04-01 19:38:00,34.2,17.0,30.07,NW,308,11.0,16.0,49,0.00,,---,0.00,VWS V14.01,2013-04-01 23:38:00,
2013-04-01 19:43:00,33.9,17.2,30.07,NW,306,5.0,16.0,50,0.00,,---,0.00,VWS V14.01,2013-04-01 23:43:00,
2013-04-01 19:48:00,33.5,16.9,30.07,WNW,301,10.0,16.0,50,0.00,,---,0.00,VWS V14.01,2013-04-01 23:48:00,
2013-04-01 19:53:00,33.2,17.0,30.07,NW,314,7.0,16.0,51,0.00,,---,0.00,VWS V14.01,2013-04-01 23:53:00,
2013-04-01 19:58:00,32.9,16.8,30.07,NW,314,9.0,16.0,51,0.00,,---,0.00,VWS V14.01,2013-04-01 23:58:00,
2013-04-01 20:03:00,32.6,16.9,30.07,NW,306,5.0,12.0,52,0.00,,---,0.00,VWS V14.01,2013-04-02 00:03:00,
2013-04-01 20:08:00,32.2,16.6,30.07,NW,323,4.0,12.0,52,0.00,,---,0.00,VWS V14.01,2013-04-02 00:08:00,
2013-04-01 20:18:00,31.6,16.9,30.07,NNW,336,4.0,12.0,54,0.00,,---,0.00,VWS V14.01,2013-04-02 00:18:00,
2013-04-01 20:23:00,31.4,17.1,30.07,NW,326,3.0,12.0,55,0.00,,---,0.00,VWS V14.01,2013-04-02 00:23:00,
2013-04-01 20:28:00,31.2,16.9,30.07,WNW,295,4.0,12.0,55,0.00,,---,0.00,VWS V14.01,2013-04-02 00:28:00,
2013-04-01 20:33:00,31.1,16.8,30.07,WNW,298,3.0,10.0,55,0.00,,---,0.00,VWS V14.01,2013-04-02 00:33:00,
2013-04-01 20:39:00,31.0,17.2,30.07,WNW,300,4.0,10.0,56,0.00,,---,0.00,VWS V14.01,2013-04-02 00:39:00,
2013-04-01 20:44:00,31.0,17.2,30.07,WNW,288,4.0,10.0,56,0.00,,---,0.00,VWS V14.01,2013-04-02 00:44:00,
2013-04-01 20:49:00,30.9,17.1,30.08,NW,311,4.0,10.0,56,0.00,,---,0.00,VWS V14.01,2013-04-02 00:49:00,
2013-04-01 20:54:00,30.6,16.8,30.08,NW,320,4.0,10.0,56,0.00,,---,0.00,VWS V14.01,2013-04-02 00:54:00,
2013-04-01 20:59:00,30.2,16.8,30.08,NW,315,2.0,10.0,57,0.00,,---,0.00,VWS V14.01,2013-04-02 00:59:00,
2013-04-01 21:04:00,29.8,16.8,30.08,NW,318,3.0,5.0,58,0.00,,---,0.00,VWS V14.01,2013-04-02 01:04:00,
2013-04-01 21:09:00,29.6,17.0,30.08,NNW,329,2.0,5.0,59,0.00,,---,0.00,VWS V14.01,2013-04-02 01:09:00,
2013-04-01 21:14:00,29.2,16.7,30.08,NW,317,2.0,5.0,59,0.00,,---,0.00,VWS V14.01,2013-04-02 01:14:00,
2013-04-01 21:19:00,28.9,16.8,30.08,NW,319,3.0,5.0,60,0.00,,---,0.00,VWS V14.01,2013-04-02 01:19:00,
2013-04-01 21:24:00,28.7,16.6,30.08,NW,324,2.0,5.0,60,0.00,,---,0.00,VWS V14.01,2013-04-02 01:24:00,
2013-04-01 21:29:00,28.3,16.6,30.08,NNW,342,3.0,5.0,61,0.00,,---,0.00,VWS V14.01,2013-04-02 01:29:00,
2013-04-01 21:34:00,27.6,16.3,30.08,NNW,342,1.0,2.0,62,0.00,,---,0.00,VWS V14.01,2013-04-02 01:34:00,
2013-04-01 21:39:00,27.6,16.3,30.08,NNW,336,2.0,2.0,62,0.00,,---,0.00,VWS V14.01,2013-04-02 01:39:00,
2013-04-01 21:44:00,28.1,16.8,30.09,NNW,329,1.0,3.0,62,0.00,,---,0.00,VWS V14.01,2013-04-02 01:44:00,
2013-04-01 21:49:00,28.5,16.4,30.09,NNW,329,0.0,3.0,60,0.00,,---,0.00,VWS V14.01,2013-04-02 01:49:00,
2013-04-01 21:54:00,28.7,16.2,30.09,NNW,329,1.0,3.0,59,0.00,,---,0.00,VWS V14.01,2013-04-02 01:54:00,
2013-04-01 21:59:00,28.7,16.2,30.09,NNW,329,0.0,3.0,59,0.00,,---,0.00,VWS V14.01,2013-04-02 01:59:00,
2013-04-01 22:04:00,28.7,16.6,30.09,NNW,329,0.0,0.0,60,0.00,,---,0.00,VWS V14.01,2013-04-02 02:04:00,
2013-04-01 22:09:00,28.7,17.0,30.10,NNW,329,0.0,1.0,61,0.00,,---,0.00,VWS V14.01,2013-04-02 02:09:00,
2013-04-01 22:14:00,28.5,16.8,30.10,NNW,329,1.0,1.0,61,0.00,,---,0.00,VWS V14.01,2013-04-02 02:14:00,
2013-04-01 22:19:00,28.8,16.7,30.10,NNW,329,0.0,1.0,60,0.00,,---,0.00,VWS V14.01,2013-04-02 02:19:00,
2013-04-01 22:24:00,28.9,16.8,30.10,NNW,329,0.0,1.0,60,0.00,,---,0.00,VWS V14.01,2013-04-02 02:24:00,
2013-04-01 22:29:00,28.8,16.7,30.10,NNW,329,0.0,1.0,60,0.00,,---,0.00,VWS V14.01,2013-04-02 02:29:00,
2013-04-01 22:34:00,28.8,16.7,30.10,NNW,329,0.0,1.0,60,0.00,,---,0.00,VWS V14.01,2013-04-02 02:34:00,
2013-04-01 22:39:00,28.9,16.4,30.10,NNW,329,0.0,1.0,59,0.00,,---,0.00,VWS V14.01,2013-04-02 02:39:00,
2013-04-01 22:44:00,28.8,16.3,30.10,NNW,329,0.0,1.0,59,0.00,,---,0.00,VWS V14.01,2013-04-02 02:44:00,
2013-04-01 22:49:00,28.8,16.3,30.10,NNW,329,0.0,1.0,59,0.00,,---,0.00,VWS V14.01,2013-04-02 02:49:00,
2013-04-01 22:54:00,28.5,16.4,30.10,NNW,329,0.0,1.0,60,0.00,,---,0.00,VWS V14.01,2013-04-02 02:54:00,
2013-04-01 22:59:00,28.2,16.5,30.10,NNW,329,0.0,1.0,61,0.00,,---,0.00,VWS V14.01,2013-04-02 02:59:00,
2013-04-01 23:04:00,28.1,16.8,30.10,NNW,329,0.0,0.0,62,0.00,,---,0.00,VWS V14.01,2013-04-02 03:04:00,
2013-04-01 23:09:00,27.8,16.5,30.10,NNW,329,0.0,0.0,62,0.00,,---,0.00,VWS V14.01,2013-04-02 03:09:00,
2013-04-01 23:14:00,28.3,16.6,30.10,NNW,329,0.0,0.0,61,0.00,,---,0.00,VWS V14.01,2013-04-02 03:14:00,
2013-04-01 23:19:00,28.3,16.2,30.10,NNW,329,0.0,0.0,60,0.00,,---,0.00,VWS V14.01,2013-04-02 03:19:00,
2013-04-01 23:24:00,28.3,16.2,30.10,NNW,329,0.0,0.0,60,0.00,,---,0.00,VWS V14.01,2013-04-02 03:24:00,
2013-04-01 23:29:00,28.1,16.4,30.10,NNW,329,0.0,0.0,61,0.00,,---,0.00,VWS V14.01,2013-04-02 03:29:00,
2013-04-01 23:34:00,28.3,16.6,30.10,NNW,329,0.0,0.0,61,0.00,,---,0.00,VWS V14.01,2013-04-02 03:34:00,
2013-04-01 23:39:00,28.3,16.6,30.10,NNW,329,0.0,0.0,61,0.00,,---,0.00,VWS V14.01,2013-04-02 03:39:00,
2013-04-01 23:44:00,28.1,16.4,30.10,NNW,329,0.0,0.0,61,0.00,,---,0.00,VWS V14.01,2013-04-02 03:44:00,
2013-04-01 23:49:00,27.9,16.2,30.10,NNW,329,0.0,0.0,61,0.00,,---,0.00,VWS V14.01,2013-04-02 03:49:00,
2013-04-01 23:54:00,27.8,16.5,30.10,NNW,329,0.0,0.0,62,0.00,,---,0.00,VWS V14.01,2013-04-02 03:54:00,
2013-04-01 23:59:00,27.7,16.4,30.10,NNW,329,0.0,0.0,62,0.00,,---,0.00,VWS V14.01,2013-04-02 03:59:00,